Orbital Elements at Epoch 2459200.5 (2020-Dec-17.0) TDB
Reference: JPL 29 (heliocentric ecliptic J2000)
Element | Value | Uncertainty (1-sigma) | Units |
e | .1074267543752958 | 4.0562e-08 | |
a | 3.177720257583576 | 2.1681e-08 | au |
q | 2.836348083998743 | 1.3094e-07 | au |
i | 1.879566041593135 | 5.3034e-06 | deg |
node | 19.17667461976813 | 0.00012104 | deg |
peri | 203.901892555036 | 0.00012334 | deg |
M | 11.9358525629553 | 2.2133e-05 | deg |
tp | 2459131.900197479053 (2020-Oct-09.40019748) | 0.00012737 | TDB |
period | 2069.054453989178 5.66 | 2.1175e-05 5.797e-08 | d yr |
n | .1739925207410143 | 1.7806e-09 | deg/d |
Q | 3.519092431168408 | 2.401e-08 | au |
|
| | Orbit Determination Parameters
Additional Information
|